Showing default

SPARK 2, 41901

Orbit data source: Space-Track

SPARK 2, 41901 is a payload satellite owned by SECM (CN) in SSO that was launched on Wed, 21 Dec 2016 UTC via a CHANG ZHENG 2D launch vehicle from the Jiuquan Satellite Launch Center, China (JSC). Payloads include a variety of satellites, spacecraft, and rockets equipped with specific instruments for various scientific and technological missions. These include communications satellites like Starlink; space stations such as the ISS; scientific satellites like the Hubble; Earth observation satellites from companies like Planet Labs, Umbra, and HawkEye 360; GPS; miniature CubeSats for education and research; and military/defense satellites.

Loading next visibility...
SPARK 2 details
Identifier
41901, 2016-081D
Orbit
SSO
Last TLE update20 hours ago
Origin
Flag of CNSECM (CN / PRC)
ManufacturerSECM
MissionOperational Civil Imaging
Bus & MotorSPARK, Unknown motor
Mass43 kg wet, 43 kg dry
Launch date (UTC)
2016-12-21 (8 years ago)
Launch vehicle
CHANG ZHENG 2D
Launch site
Jiuquan Satellite Launch Center, China (JSC)
Object type
Payload
Rocket body
Debris
Shape & HBRBox + 2 Pan, 1 m
Radar Cross Section0.388 m², Medium (>0.1 m² and < 1m²)

Expand to show TLE details & history

TLE from 20 hours ago
0 SPARK 2
1 41901U 16081D   24360.64515459  .00002077  00000-0  46181-3 0  9994
2 41901  98.4866 325.7741 0025720 182.5628 177.5442 14.57895184425615
Epoch: 2024-12-25T15:29Z
Definitive object data (Epoch: 2024-12-25T15:29:01.356Z)
Latitude-0.00006°
Longitude-1.11747°
Altitude721.144 km
Speed7.485 km/s
True Right ascension21h 43m 05s
True Declination0° 00' 00"
Sunlit
Object was in daylight at TLE epoch
Visualization TLE readout
Latitude32.55174°
Longitude-174.81295°
Altitude688.885 km
Speed7.523 km/s
Apparent Right ascension06h 54m 42s
Apparent Declination-8° 29' 34"
Sunlit
Object is in full shadow
Visualization observer readout
Local Sidereal Time11:16:48
Azimuth247.322° WSW
Elevation12.678°
Doppler factor1
Orbital elements
Apogee altitude715.273 km
Perigee altitude678.878 km
Semi-major axis7,075.213 km
Eccentricity0.002572
Inclination98.4866°
RAAN325.7741°
Arg. of periapsis182.5628°
True anomaly177.55679°
Mean anomaly177.5442°
Eccentric anomaly177.5505°
Mean motion3.64698 °/min
BSTAR0.00046181
Orbital period98.71 mins
Loading maneuver chart data...
Loading historical data...
Loading historical data...
Loading historical data...
Loading historical data...
Loading historical data...
Loading historical data...
Loading historical data...
Other satellites on launch #81 in the year 2016 (2016-12-21 UTC)

SPARK 2 Visibility forecast

Observer location: undefined°, undefined

Span
Click to sort rows by Start time (UTC) header in descending order
Start Az.
Max El. time (UTC)
Max El. Az.
Max El.
End time (UTC)
End Az.
7 mins2024-12-26 21:16:23.255Z130.355° SE2024-12-26 21:19:23.255Z78.571° E31.424°2024-12-26 21:23:23.255Z6.768° NNE
5 mins2024-12-26 22:55:23.255Z232.487° WSW2024-12-26 22:57:23.255Z265.13° W20.364°2024-12-26 23:00:23.255Z309.607° NW
8 mins2024-12-27 10:53:23.255Z11.412° NNE2024-12-27 10:57:23.255Z212.107° SW43.434°2024-12-27 11:01:23.255Z197.02° SSW
|